Zurück zum Katalog

FENGYUN 1C DEB

AktivPO
NORAD 31978·DEBRIS·🇨🇳 China

Gestartet May 10, 1999 von Taiyuan Satellite Launch Center

Loading…

Nächste Überflüge (nächste 24 Stunden)

TLE

AktuellSource: Space-Track

Epoche: Sep 12, 2026, 07:05 UTC

1 31978U 99025CPF 26255.29525045  .00000316  00000-0  34954-3 0  9993
2 31978  98.4033  18.1515 0263236  46.0680 316.1866 13.63770579953189

Verfolge FENGYUN 1C DEB in Echtzeit mit AllMySat

Download on the App Store